Regional Weather Roundup
Issued by NWS New Orleans/Baton Rouge, LA

Home | Current Version | Previous Version | Graphics & Text | Print | Product List | Glossary On
Versions: 1 2 3 4 5 6 7 8 9 10 11 12 13 14 15 16 17 18 19 20 21 22 23 24 25 26 27 28 29 30 31 32 33 34 35 36 37 38 39 40 41 42 43 44 45 46 47 48 49 50
040
ASUS44 KLIX 182110
RWRLIX
NEW ORLEANS REGIONAL WEATHER ROUNDUP
NATIONAL WEATHER SERVICE NEW ORLEANS LA
400 PM CDT FRI APR 18 2014

NOTE: "FAIR" INDICATES FEW OR NO CLOUDS BELOW 12,000 FEET WITH NO
      SIGNIFICANT WEATHER AND/OR OBSTRUCTIONS TO VISIBILITY.
      SKY/WX - SKY CONDITION AND SIGNIFICANT WEATHER.
      TMP - AIR TEMPERATURE.     DP    - DEWPOINT TEMPERATURE.
      RH  - RELATIVE HUMIDITY.   PRES  - PRESSURE.
      HI  - HEAT INDEX.          WCI   - WIND CHILL INDEX.

*  THESE STATIONS ARE NOT NWS OR FAA STATIONS AND ARE NOT UNDER
   NWS QUALITY CONTROL.

LAZ038-040-048-061>063-065>067-069-182200-
SOUTHEAST LOUISIANA

CITY           SKY/WX    TMP DP  RH WIND       PRES   REMARKS
N.O. AUDUBON   NOT AVBL
N.O. INTL ARPT MOSUNNY   73  59  61 NE16      30.06S
N.O. LAKEFRONT MOSUNNY   70  60  70 NE12      30.06S
N.O. DOWNTOWN* MOCLDY    72  54  53 N10G24    30.06S
SLIDELL        CLOUDY    71  57  61 N14       30.05S
BATON ROUGE    RAIN      75  56  51 N8G17     30.05F
BOOTHVILLE     CLOUDY    66  59  78 N10G20    30.04S
BELLE CHASSE   PTSUNNY   73  57  57 NE10G17   30.04F
BOGALUSA*        N/A     73  56  55 NE15G24   30.09R
GALLIANO*      PTCLDY    75  60  59 N15G21    30.04S
NEW ROADS*       N/A     73  60  63 NW15      30.07F
GONZALES*      MOCLDY    75  57  52 N6        30.04S
HAMMOND*       MOSUNNY   75  54  46 N13G18    30.07S
HOUMA*         MOSUNNY   77  55  47 N16       30.04F
PORT FOURCHON*   N/A     73  59  60 NE16G23   30.06S

$$

MSZ070-080>082-182200-
SOUTHERN MISSISSIPPI

CITY           SKY/WX    TMP DP  RH WIND       PRES   REMARKS
MCCOMB         PTSUNNY   73  54  51 NE7       30.08F
GULFPORT       CLOUDY    66  57  72 N16G26    30.04S
BILOXI         CLOUDY    64  59  82 N16G22    30.05R
PASCAGOULA     CLOUDY    62  57  83 N16       30.04S
STENNIS ARPT*    N/A     64  57  77 N14G21    30.06F

$$

COASTAL OBSERVATIONS
LAKE AND NEARSHORE STATIONS

STATION/POSITION TIME  TEMP    WIND        PRES    WAVE
                       AIR SEA DIR/SP/G            HT/PER
                 (UTC) (F)     (DEG/KT/KT) (MB)    (FT/S)
PASCAGOULA       2100   64      10/  9/ 16 1016.4
WAVELAND YACHT   2100   62 68   10/ 18/ 19 1016.9
GRAND ISLE       2100   69 68   30/ 13/ 18 1017.7
SOUTHWEST PASS   2100   67 58   30/ 13/ 14 1017.2
NEW CANAL        2100   67 65   40/ 12/ 13 1018.2
SHELL BEACH      2100   66 63   10/ 17/ 19 1017.2

OFFSHORE STATIONS

STATION/POSITION TIME  TEMP    WIND        PRES    WAVE
                       AIR SEA DIR/SP/G            HT/PER
                 (UTC) (F)     (DEG/KT/KT) (MB)    (FT/S)
64 S DAUPHIN ISL 2044   65 71   10/ 23/ 27 1015.5

$$




USA.gov is the U.S. government's official web portal to all federal, state and local government web resources and services.